Location: Berlin
(52.5170°N, 13.4000°E)
Time: 15:13:15
(UTC+02:00)

ISS - Pass Details

Date: 20 July 2018
Orbit: 402 x 408 km, 51.6° (Epoch: 23 July)

Event Time Altitude Azimuth Distance (km) Brightness Sun altitude
Rises 02:13:52 0° 274° (W) 2,330 -0.1 -15.6°
Reaches altitude 10° 02:15:57 10° 273° (W) 1,470 -1.1 -15.5°
Maximum altitude 02:19:14 71° 189° (S) 436 -4.0 -15.4°
Drops below altitude 10° 02:22:31 10° 105° (ESE) 1,471 -1.0 -15.2°
Sets 02:24:36 0° 103° (ESE) 2,331 0.1 -15.1°
